When you browse on this site, cookies collect data to enhance your experience and personalize the content and advertising you see.
Visit our Privacy Policy to learn more. By continuing to use the site, you agree to this use of cookies and data.
  • In Czech Republic
  • List of Countries
  • For 7 days
  • Water Temperature
  • Satellite Maps
  • Weather Map
  • Weather Widgets
  • user-avatar
    Login

    Hourly Weather Newcastle

    Today, 16 June, Sunday

    Time Temperature Precipitation Wind Pressure Humidity
    00:00 +16°C° 0 mm 3 mps 751 mmHg 63%
    01:00 +16°C° 0 mm 3 mps 751 mmHg 61%
    02:00 +14°C° 0 mm 3 mps 750 mmHg 57%
    03:00 +13°C° 0.7 mm 3 mps 750 mmHg 70%
    04:00 +12°C° 0.7 mm 3 mps 750 mmHg 83%
    05:00 +11°C° 0.7 mm 3 mps 750 mmHg 96%
    06:00 +12°C° 0 mm 3 mps 751 mmHg 93%
    07:00 +13°C° 0 mm 3 mps 751 mmHg 90%
    08:00 +14°C° 0 mm 4 mps 751 mmHg 86%
    09:00 +17°C° 0 mm 4 mps 751 mmHg 73%
    10:00 +20°C° 0 mm 4 mps 751 mmHg 61%
    11:00 +22°C° 0 mm 4 mps 751 mmHg 48%
    12:00 +22°C° 0 mm 4 mps 751 mmHg 45%
    13:00 +23°C° 0 mm 4 mps 751 mmHg 42%
    14:00 +25°C° 0 mm 4 mps 751 mmHg 39%
    15:00 +25°C° 0 mm 4 mps 750 mmHg 42%
    16:00 +24°C° 0 mm 3 mps 750 mmHg 45%
    17:00 +24°C° 0 mm 3 mps 750 mmHg 48%
    18:00 +21°C° 0 mm 2 mps 751 mmHg 57%
    19:00 +19°C° 0 mm 2 mps 751 mmHg 65%
    20:00 +18°C° 0 mm 1 mps 752 mmHg 73%
    21:00 +16°C° 0 mm 1 mps 752 mmHg 77%
    22:00 +13°C° 0 mm 0 mps 752 mmHg 82%
    23:00 +12°C° 0 mm 0 mps 752 mmHg 86%

    Tomorrow, 17 June, Monday

    Time Temperature Precipitation Wind Pressure Humidity
    00:00 +12°C° 0 mm 0 mps 752 mmHg 83%
    01:00 +14°C° 0 mm 1 mps 752 mmHg 81%
    02:00 +14°C° 0 mm 1 mps 752 mmHg 79%
    03:00 +13°C° 0 mm 1 mps 752 mmHg 79%
    04:00 +13°C° 0 mm 2 mps 752 mmHg 79%
    05:00 +12°C° 0 mm 2 mps 752 mmHg 80%
    06:00 +14°C° 0 mm 2 mps 752 mmHg 74%
    07:00 +15°C° 0 mm 2 mps 752 mmHg 68%
    08:00 +17°C° 0 mm 2 mps 752 mmHg 63%
    09:00 +18°C° 0 mm 3 mps 752 mmHg 57%
    10:00 +19°C° 0 mm 3 mps 752 mmHg 50%
    11:00 +21°C° 0 mm 3 mps 752 mmHg 44%
    12:00 +22°C° 0 mm 3 mps 752 mmHg 42%
    13:00 +22°C° 0 mm 3 mps 752 mmHg 39%
    14:00 +24°C° 0 mm 3 mps 752 mmHg 36%
    15:00 +24°C° 0 mm 3 mps 753 mmHg 40%
    16:00 +22°C° 0 mm 3 mps 753 mmHg 44%
    17:00 +21°C° 0 mm 2 mps 753 mmHg 47%
    18:00 +19°C° 0 mm 2 mps 753 mmHg 58%
    19:00 +16°C° 0 mm 1 mps 753 mmHg 69%
    20:00 +14°C° 0 mm 1 mps 754 mmHg 80%
    21:00 +13°C° 0 mm 1 mps 754 mmHg 81%
    22:00 +13°C° 0 mm 1 mps 754 mmHg 82%
    23:00 +12°C° 0 mm 1 mps 755 mmHg 83%

    Day after tomorrow, 18 June, Tuesday

    Time Temperature Precipitation Wind Pressure Humidity
    00:00 +11°C° 0 mm 1 mps 755 mmHg 83%
    01:00 +11°C° 0 mm 1 mps 755 mmHg 84%
    02:00 +10°C° 0 mm 1 mps 754 mmHg 84%
    03:00 +10°C° 0 mm 1 mps 755 mmHg 82%
    04:00 +10°C° 0 mm 1 mps 755 mmHg 79%
    05:00 +10°C° 0 mm 1 mps 755 mmHg 77%
    06:00 +13°C° 0 mm 1 mps 755 mmHg 69%
    07:00 +15°C° 0 mm 2 mps 755 mmHg 62%
    08:00 +18°C° 0 mm 2 mps 755 mmHg 54%
    09:00 +20°C° 0 mm 2 mps 754 mmHg 50%
    10:00 +21°C° 0 mm 2 mps 754 mmHg 47%
    11:00 +24°C° 0 mm 3 mps 754 mmHg 43%
    12:00 +22°C° 0 mm 3 mps 753 mmHg 45%
    13:00 +22°C° 0 mm 3 mps 753 mmHg 47%
    14:00 +22°C° 0 mm 3 mps 753 mmHg 49%
    15:00 +22°C° 0 mm 3 mps 753 mmHg 49%
    16:00 +24°C° 0 mm 3 mps 752 mmHg 49%
    17:00 +24°C° 0 mm 3 mps 752 mmHg 49%
    18:00 +21°C° 0 mm 3 mps 752 mmHg 56%
    19:00 +20°C° 0 mm 2 mps 752 mmHg 63%
    20:00 +18°C° 0 mm 2 mps 752 mmHg 71%
    21:00 +17°C° 0 mm 2 mps 752 mmHg 76%
    22:00 +16°C° 0 mm 2 mps 752 mmHg 81%
    23:00 +15°C° 0 mm 2 mps 752 mmHg 86%

    19 June, Wednesday

    Time Temperature Precipitation Wind Pressure Humidity
    00:00 +14°C° 0.1 mm 2 mps 752 mmHg 90%
    01:00 +14°C° 0.1 mm 2 mps 752 mmHg 93%
    02:00 +13°C° 0.1 mm 2 mps 752 mmHg 97%
    03:00 +13°C° 0.1 mm 2 mps 752 mmHg 97%
    04:00 +13°C° 0.1 mm 2 mps 752 mmHg 97%
    05:00 +13°C° 0.1 mm 2 mps 752 mmHg 98%
    06:00 +14°C° 0 mm 2 mps 752 mmHg 93%
    07:00 +15°C° 0 mm 2 mps 752 mmHg 89%
    08:00 +17°C° 0 mm 2 mps 752 mmHg 85%
    09:00 +18°C° 0 mm 2 mps 752 mmHg 80%
    10:00 +19°C° 0 mm 2 mps 752 mmHg 76%
    11:00 +21°C° 0 mm 2 mps 752 mmHg 71%
    12:00 +21°C° 0.5 mm 2 mps 752 mmHg 70%
    13:00 +23°C° 0.5 mm 2 mps 751 mmHg 69%
    14:00 +24°C° 0.5 mm 2 mps 751 mmHg 69%
    15:00 +24°C° 0.6 mm 2 mps 751 mmHg 70%
    16:00 +23°C° 0.6 mm 1 mps 750 mmHg 72%
    17:00 +23°C° 0.6 mm 1 mps 750 mmHg 74%
    18:00 +22°C° 0.6 mm 1 mps 750 mmHg 79%
    19:00 +20°C° 0.6 mm 1 mps 751 mmHg 85%
    20:00 +18°C° 0.6 mm 1 mps 751 mmHg 90%
    21:00 +18°C° 0.1 mm 1 mps 751 mmHg 92%
    22:00 +16°C° 0.1 mm 1 mps 750 mmHg 94%
    23:00 +15°C° 0.1 mm 2 mps 750 mmHg 96%

    20 June, Thursday

    Time Temperature Precipitation Wind Pressure Humidity
    00:00 +15°C° 0 mm 2 mps 750 mmHg 97%
    01:00 +14°C° 0 mm 2 mps 750 mmHg 97%
    02:00 +14°C° 0 mm 2 mps 750 mmHg 98%
    03:00 +14°C° 0.3 mm 1 mps 750 mmHg 98%
    04:00 +14°C° 0.3 mm 1 mps 749 mmHg 98%
    05:00 +14°C° 0.3 mm 1 mps 749 mmHg 99%
    06:00 +14°C° 0.8 mm 1 mps 749 mmHg 99%
    07:00 +14°C° 0.8 mm 1 mps 750 mmHg 98%
    08:00 +15°C° 0.8 mm 1 mps 750 mmHg 98%
    09:00 +14°C° 1.3 mm 0 mps 749 mmHg 98%
    10:00 +14°C° 1.3 mm 0 mps 749 mmHg 98%
    11:00 +14°C° 1.3 mm 0 mps 749 mmHg 98%
    12:00 +16°C° 0.1 mm 1 mps 749 mmHg 97%
    13:00 +16°C° 0.1 mm 1 mps 749 mmHg 96%
    14:00 +18°C° 0.1 mm 1 mps 748 mmHg 94%
    15:00 +19°C° 0.3 mm 1 mps 748 mmHg 89%
    16:00 +20°C° 0.3 mm 1 mps 748 mmHg 83%
    17:00 +21°C° 0.3 mm 1 mps 748 mmHg 78%
    18:00 +19°C° 0.1 mm 1 mps 749 mmHg 83%
    19:00 +18°C° 0.1 mm 1 mps 749 mmHg 89%
    20:00 +16°C° 0.1 mm 1 mps 749 mmHg 94%
    21:00 +14°C° 0 mm 1 mps 749 mmHg 95%
    22:00 +12°C° 0 mm 0 mps 749 mmHg 96%
    23:00 +11°C° 0 mm 0 mps 750 mmHg 97%

    21 June, Friday

    Time Temperature Precipitation Wind Pressure Humidity
    00:00 +11°C° 0 mm 0 mps 750 mmHg 96%
    01:00 +10°C° 0 mm 0 mps 750 mmHg 96%
    02:00 +10°C° 0 mm 0 mps 750 mmHg 96%
    03:00 +10°C° 0 mm 1 mps 750 mmHg 95%
    04:00 +10°C° 0 mm 1 mps 750 mmHg 95%
    05:00 +10°C° 0 mm 1 mps 750 mmHg 94%
    06:00 +12°C° 0 mm 1 mps 750 mmHg 87%
    07:00 +14°C° 0 mm 1 mps 751 mmHg 80%
    08:00 +16°C° 0 mm 0 mps 751 mmHg 73%
    09:00 +20°C° 0 mm 1 mps 751 mmHg 64%
    10:00 +22°C° 0 mm 1 mps 751 mmHg 55%
    11:00 +23°C° 0 mm 1 mps 751 mmHg 47%
    12:00 +23°C° 0 mm 1 mps 750 mmHg 47%
    13:00 +23°C° 0 mm 2 mps 750 mmHg 46%
    14:00 +23°C° 0 mm 2 mps 750 mmHg 46%
    15:00 +21°C° 0 mm 2 mps 750 mmHg 51%
    16:00 +20°C° 0 mm 2 mps 750 mmHg 56%
    17:00 +20°C° 0 mm 2 mps 750 mmHg 61%
    18:00 +18°C° 0 mm 2 mps 750 mmHg 68%
    19:00 +18°C° 0 mm 1 mps 751 mmHg 75%
    20:00 +15°C° 0 mm 1 mps 751 mmHg 82%
    21:00 +15°C° 0 mm 1 mps 751 mmHg 86%
    22:00 +14°C° 0 mm 1 mps 751 mmHg 89%
    23:00 +13°C° 0 mm 1 mps 751 mmHg 93%
    Show more